www.pogodaiklimat.ru

Погода и климат >> Архив погоды >> Гана >> Кумаси


ПОГОДА в Кумаси

  • Прогноз погоды в Кумаси
  • Монитор погоды в Кумаси

АРХИВ ПОГОДЫ в Кумаси

Время (UTC), дата Ветер
(напр.,м/с)
 
Видим.   Явления Облачность Т
(С)
Тd
(С)
f
(%)
Тe
(С)
Тes
(С)
Комфортность P
(гПа)
Po
(гПа)
Тmin
(С)
Tmax
(С)
R
(мм)
R24
(мм)
S
(см)
12 12.09 ЮЗ 2 12 км 8/6 480 м
[Cu med, cong Ac trans]
+28.3 +23.0 73 +38 +45 очень
душно
1012.5 979.4
15 12.09 ЮЗ 3 14 км {морось} 8/3 400 м
[Cu Sc Ac trans]
+28.7 +22.5 69 +38 +41 очень
душно
1009.7 976.8
18 12.09 Ю 3 14 км {дождь} 8/6 330 м
[Cb cap Ac trans Ci fib]
+28.2 +22.7 72 +37 +37 очень
душно
1010.5 977.5 +30.5 0.0
21 12.09 ЮЗ 3 14 км 9/9 300 м
[Sc]
+24.5 +22.8 90 +32 +32 очень
душно
1013.1 979.6
00 13.09 ЮЗ 8 12 км 9/9 240 м
[Sc]
+23.5 +22.5 94 +31 +31 очень
душно
1013.8 980.2
03 13.09 ЮЗ 2 12 км 9/9 240 м
[Sc]
+24.0 +22.6 92 +31 +31 очень
душно
1012.7 979.1
06 13.09 ЮЗ 1 12 км 9/6 210 м
[Sc Ac trans]
+23.5 +22.3 93 +31 +31 очень
душно
1014.1 980.4 +23.0 0.0
09 13.09 Ю 2 14 км 9/6 240 м
[Cu Sc Ac trans]
+25.3 +22.4 84 +33 +35 очень
душно
1015.6 982.1
12 13.09 СЗ 2 14 км {ливн. осадки, морось} 8/6 300 м
[Cu Sc Ac trans]
+27.4 +23.0 77 +37 +43 очень
душно
1014.4 981.2 0.8
18 13.09 ЮВ 3 16 км 6/4 360 м
[Cu Sc Ac trans]
+30.0 +22.5 64 +39 +39 очень
душно
1010.9 978.1 +31.9 0.8
21 13.09 ЮЗ 5 14 км в посл. час дождь 9/8 300 м
[Sc Ac trans]
+25.1 +22.8 87 +33 +33 очень
душно
1013.4 979.9
00 14.09 ЮЗ 5 8000 м слаб. дождь 9/9 270 м
[Sc]
+23.8 +23.0 95 +32 +32 очень
душно
1014.4 980.8 3
03 14.09 штиль 0 12 км {дождь} 9/9 240 м
[Sc]
+23.5 +22.1 92 +30 +30 очень
душно
1013.3 979.7
09 14.09 ЮЗ 2 12 км {морось} 9/6 210 м
[Cu Sc Ac trans]
+24.5 +22.4 88 +32 +34 очень
душно
1016.1 982.5
12 14.09 ЮЗ 2 14 км {морось} 9/6 420 м
[Cu med, cong Ac trans]
+27.9 +22.8 74 +37 +42 очень
душно
1013.2 980.1 0.0
15 14.09 ЮВ 3 14 км 9/1 300 м
[Cb cap Ac trans]
+29.9 +20.1 56 +36 +40 очень
душно
1019.9 986.8
21 14.09 СЗ 2 3000 м {гроза, дождь} 4/0
[Ac trans]
+23.3 +22.3 94 +32 +32 очень
душно
1012.3 978.7
00 15.09 штиль 0 8000 м дымка {гроза, дождь} 9/9 240 м
[Sc]
+22.8 +21.8 94 +31 +31 очень
душно
1013.7 980.0 0.7
06 15.09 штиль 0 8000 м дымка 5/3 210 м
[Sc Ac trans]
+22.0 +21.2 95 +28 +28 душно 1013.3 979.5 +21.6 25
09 15.09 З 3 12 км 8/6 300 м
[Cu Sc Ac trans]
+25.4 +22.1 82 +33 +35 очень
душно
1013.8 980.4
12 15.09 ЮЗ 1 22 км 8/6 400 м
[Cu Sc Ac trans]
+27.7 +22.2 72 +36 +43 очень
душно
1012.7 979.5
15 15.09 Ю 1 22 км 8/5 330 м
[Cu Sc Ac trans]
+30.4 +21.8 60 +39 +43 очень
душно
1009.9 977.1
18 15.09 С 1 20 км 6/4 400 м
[Cb cap Ac trans Ci sp]
+30.1 +23.1 66 +40 +40 очень
душно
1009.8 977.0 +31.6
21 15.09 ЮЗ 3 16 км 5/5 300 м
[Sc]
+23.2 +23.3 100 +33 +33 очень
душно
1016.3 982.5
00 16.09 ЮЗ 3 14 км 9/9 270 м
[Sc]
+24.6 +22.5 88 +32 +32 очень
душно
1012.9 979.4
03 16.09 ЮЗ 3 12 км 9/9 240 м
[Sc]
+24.0 +21.9 88 +31 +31 очень
душно
1011.9 978.4
06 16.09 ЮЗ 2 6000 м слаб. морось 9/9 150 м
[St]
+23.8 +22.6 93 +31 +31 очень
душно
1012.9 979.3 +22.3 0.0
09 16.09 ЮЗ 2 12 км {морось} 8/8 420 м
[Cu Sc Ac trans]
+26.0 +22.5 81 +34 +36 очень
душно
1014.1 980.7
12 16.09 ЮЗ 2 12 км {морось} 8/8 360 м
[Cu Sc Ac trans]
+28.2 +22.4 71 +37 +42 очень
душно
1012.2 979.1 0.0
15 16.09 ЮЗ 3 18 км 6/6 500 м
[Cb cap Ac trans]
+30.0 +22.5 64 +39 +43 очень
душно
1009.8 977.0
18 16.09 СЗ 2 18 км 6/3 480 м
[Cb cap Ac trans Ci sp]
+29.4 +22.6 67 +39 +39 очень
душно
1009.6 976.7 +31.1 0.0
21 16.09 ЮЗ 2 14 км 5/4 330 м
[Sc Ac trans]
+26.4 +23.7 85 +36 +36 очень
душно
1011.1 977.9
00 17.09 ЮЗ 4 14 км 6/6 330 м
[Sc]
+25.1 +23.2 89 +34 +34 очень
душно
1012.9 979.5
03 17.09 ЮЗ 3 14 км 9/9 300 м
[Sc]
+24.5 +22.8 90 +32 +32 очень
душно
1011.7 978.2
06 17.09 ЮЗ 2 5000 м дымка 9/8 240 м
[Sc Ac trans]
+24.0 +22.4 91 +31 +31 очень
душно
1012.9 979.3 +23.3
09 17.09 ЮЗ 2 10 км в посл. час морось 9/9 270 м
[Sc]
+24.0 +22.1 89 +31 +32 очень
душно
1014.8 981.2
12 17.09 СЗ 2 14 км {морось} 8/6 360 м
[Cu Sc Ac trans]
+28.0 +22.5 72 +37 +43 очень
душно
1012.3 979.2 0.8
15 17.09 ЮЗ 4 14 км 8/6 360 м
[Cu Sc Ac trans]
+30.1 +22.3 63 +39 +41 очень
душно
1009.2 976.4
00 18.09 ЮЗ 3 12 км {гроза, дождь} 9/9 270 м
[Sc]
+24.5 +22.8 90 +32 +32 очень
душно
1012.6 979.1 0.0
03 18.09 ЮЗ 1 12 км 9/9 240 м
[Sc]
+23.9 +22.7 93 +31 +31 очень
душно
1011.8 978.3
09 18.09 З 2 12 км 8/6 300 м
[Cu Sc Ac trans]
+25.9 +22.2 80 +34 +37 очень
душно
1013.9 980.5
12 18.09 ЮЗ 4 14 км 8/8 480 м
[Cu med, cong Ac trans]
+28.5 +23.0 72 +38 +41 очень
душно
1012.4 979.3
15 18.09 ЮВ 3 14 км 8/6 360 м
[Cb cap Ac trans]
+29.4 +23.1 69 +39 +42 очень
душно
1009.2 976.3
18 18.09 штиль 0 12 км гроза без осадков 9/4 300 м
[Cb cap Ac As]
+22.8 +21.4 92 +30 +30 очень
душно
1012.4 978.7 +32.0 72
21 18.09 ЮЗ 2 12 км в посл. час гроза 9/5 300 м
[Sc Ac trans]
+23.0 +21.5 91 +31 +31 очень
душно
1013.8 980.1
00 19.09 СЗ 2 12 км {гроза} 9/6 300 м
[Sc Ac trans]
+23.0 +21.6 92 +31 +31 очень
душно
1013.1 979.4
03 19.09 штиль 0 8000 м дымка 8/4 270 м
[Sc Ac trans]
+22.8 +22.0 95 +31 +31 очень
душно
1011.0 977.4
09 19.09 СЗ 1 14 км 9/5 500 м
[Sc Ac trans]
+23.9 +21.8 88 +31 +34 очень
душно
1014.2 980.6

 

Местоположение метеостанции Кумаси (Гана): широта 6.72 долгота -1.60 высота над уровнем моря 293 м.

В архиве по умолчанию представлена погода в Кумаси за последнюю неделю. Архивные данные за месяц целиком и за предыдущие месяцы, начиная с января 2011 года, Вы можете получить, выбрав интересующий диапазон дат из раскрывающегося списка и нажав кнопку "Ввод!".


*Определитесь, кто Вы:
робот инопланетянин человек

Внимание! Время в таблицах - всемирное. Для получения местного времени необходимо прибавить поправку, которая равна 1 ч.

Смотрите также архив погоды в соседних городах и на ближайших метеорологических станциях:

Погода в Абетифи (Гана) (94 км)
Погода в Сефви Беквай (Гана) (99 км)
Погода в Суняни (Гана) (105 км)
Погода в Аким Ода (Гана) (111 км)
Погода в Уэнчи (Гана) (127 км)
Погода в Кофоридуа (Гана) (165 км)
Погода в Солтпонде (Гана) (179 км)
Погода в Бондуку (Кот-д'Ивуар) (197 км)
Погода в Аккра (Гана) (201 км)
Погода в Акюсе (Гана) (202 км)

Пояснения к столбцам:

Ветер - указаны скорость ветра в м/с - средняя за 10 мин, порывы в срок и между сроками (в фигурных скобках) и направление, откуда дует ветер: С - северный, СВ - северо-восточный, В - восточный, ЮВ - юго-восточный, Ю - южный, ЮЗ - юго-западный, З - западный, СЗ - северо-западный.
Видимость - горизонтальная дальность видимости в метрах или километрах. При видимости от 1 до 10 км при отсутствии осадков обычно наблюдается дымка, при ухудшении видимости до 1 км и менее - туман. В сухую погоду видимость может ухудшаться дымом, пылью или мглою.
Явления - указаны атмосферные явления, наблюдавшиеся в срок или в последний час перед сроком; фигурными скобками обозначены явления, наблюдавшиеся между сроками (за 1-3 часа до срока); квадратными скобками обозначены град или гололедные отложения с указанием их диаметра в мм.
Облачность - указаны через наклонную черту общая и нижняя облачность в баллах и высота нижней границы облаков в метрах; квадратными скобками обозначены формы облаков: Ci - перистые, Cs - перисто-слоистые, Cc - перисто-кучевые, Ac - высококучевые, As - высокослоистые, Sc - слоисто-кучевые, Ns - слоисто-дождевые, Cu - кучевые, Cb - кучево-дождевые. Подробнее классификацию облаков см. в Атласе облаков (PDF).
T - Температура воздуха - температура, измеренная на высоте 2 м над землей.
Td - Температура точки росы - температура, при понижении до которой содержащийся в воздухе водяной пар достигнет насыщения.
f - Относительная влажность воздуха - влажноcть воздуха, измеренная на высоте 2 м над землей.
Te - Эффективная температура - температура, которую ощущает одетый по сезону человек в тени. Характеристика душности погоды. При расчете учитывается влияние влажности воздуха и скорости ветра на теплоощущения человека.
Tes - Эффективная температура на солнце - температура, которую ощущает человек, с поправкой на солнечный нагрев. Характеристика знойности погоды. Зависит от высоты солнца над горизонтом, облачности и скорости ветра. Ночью, в пасмурную погоду, а также при ветре 12 м/с и более поправка равна нулю.
P - Атмосферное давление - приведенное к уровню моря атмосферное давление.
Po - Атмосферное давление - измеренное на уровне метеостанции атмосферное давление.
Tmin - Минимальная температура - минимум температуры воздуха на высоте 2 м над землей.
Tmax - Максимальная температура - максимум температуры воздуха на высоте 2 м над землей.
R - Количество осадков - Количество выпавших осадков за период времени, мм. При наведении курсора мыши на число - период времени, за который выпало указанное количество осадков.
R24 - Количество осадков - Количество выпавших осадков за 24 часа, мм.
S - Снежный покров - Высота снежного покрова, см. При наведении курсора мыши на число - состояние снежного покрова и степень покрытия местности в баллах.